EW1707 Weather Reports


time (UTC)temp
C
wind
direction
speed
KPH
gust
KPH
rain 1hr
cm
rain 24hr
cm
rain mn
cm
humidity
%
barometer
mb
20210801191559 16 360 0.0 6.4 0.00 0.94 0.00 68 1027.7
20210801190145 16 33 1.6 12.9 0.00 0.94 0.00 70 1028.0
20210801184534 16 42 4.8 12.9 0.00 0.94 0.00 71 1028.1
20210801183050 16 360 0.0 8.0 0.00 0.94 0.00 72 1028.3
20210801181549 16 360 1.6 11.3 0.00 0.94 0.00 70 1028.5
20210801180032 15 94 3.2 12.9 0.00 0.94 0.00 70 1028.6
20210801174539 15 93 1.6 12.9 0.00 0.94 0.00 73 1028.7
20210801173027 15 55 4.8 11.3 0.00 0.94 0.00 72 1028.9
20210801171522 15 53 3.2 9.7 0.00 0.94 0.00 73 1029.0
20210801170051 15 37 4.8 11.3 0.00 0.94 0.00 69 1029.1
20210801164526 15 59 1.6 12.9 0.00 0.94 0.00 67 1029.0
20210801163019 15 77 3.2 9.7 0.00 0.94 0.00 63 1029.2
20210801161538 14 61 1.6 11.3 0.00 0.94 0.00 69 1029.1
20210801160009 13 23 1.6 8.0 0.00 0.94 0.00 73 1029.0
20210801154519 12 40 3.2 12.9 0.00 0.94 0.00 78 1028.9
20210801151649 11 288 0.0 0.0 0.00 0.94 0.00 90 1028.7
20210801150158 10 288 0.0 0.0 0.00 0.94 0.00 93 1028.6
20210801144742 10 288 0.0 1.6 0.00 0.94 0.00 95 1028.5
20210801143136 10 287 0.0 0.0 0.00 0.94 0.00 95 1028.6
20210801141822 10 287 0.0 0.0 0.00 0.94 0.00 96 1028.5
20210801140201 10 287 0.0 4.8 0.00 0.94 0.00 96 1028.5
20210801134555 9 287 1.6 4.8 0.00 0.94 0.00 96 1028.4
20210801133322 9 287 0.0 6.4 0.00 0.94 0.00 96 1028.4
20210801131622 9 288 1.6 4.8 0.00 0.94 0.00 96 1028.3
20210801130218 9 288 0.0 1.6 0.00 0.94 0.00 96 1028.2
20210801124615 9 288 0.0 0.0 0.00 0.94 0.00 96 1028.1
20210801123131 9 288 0.0 0.0 0.00 0.94 0.00 96 1028.1
20210801121630 9 288 0.0 0.0 0.00 0.94 0.00 96 1028.0
20210801120224 9 288 0.0 4.8 0.00 0.94 0.00 96 1028.0
20210801114613 9 288 0.0 0.0 0.00 0.94 0.00 96 1027.9
20210801113204 9 288 0.0 0.0 0.00 0.94 0.00 95 1027.7
20210801111629 9 288 0.0 0.0 0.00 0.94 0.00 95 1027.8
20210801110105 9 288 0.0 0.0 0.00 0.94 0.00 95 1027.7
20210801104556 9 288 0.0 4.8 0.00 0.94 0.00 95 1027.6
20210801103057 9 288 0.0 4.8 0.00 0.94 0.00 95 1027.6
20210801101600 9 287 0.0 6.4 0.00 0.94 0.00 95 1027.4
20210801100120 9 288 1.6 6.4 0.00 0.94 0.00 95 1027.4
20210801094641 9 288 1.6 6.4 0.00 0.94 0.00 95 1027.2
20210801093105 9 288 3.2 9.7 0.00 0.94 0.00 95 1027.1
20210801091559 10 294 1.6 8.0 0.00 0.94 0.00 95 1027.1
20210801090047 10 294 1.6 8.0 0.00 0.94 0.00 95 1027.0
20210801084614 10 294 1.6 6.4 0.00 0.97 0.00 95 1026.9
20210801083033 10 294 3.2 6.4 0.00 0.97 0.00 95 1026.9
20210801081609 10 294 1.6 6.4 0.00 0.97 0.00 95 1027.0
20210801080058 10 294 3.2 6.4 0.00 0.97 0.00 95 1027.2
20210801074540 10 294 0.0 4.8 0.00 1.04 0.00 95 1027.2
20210801073029 10 294 1.6 8.0 0.00 1.04 0.00 95 1027.3
20210801071530 10 295 1.6 6.4 0.00 1.04 0.00 95 1027.6
20210801070057 10 295 0.0 4.8 0.00 1.04 0.00 95 1027.7
20210801064526 10 295 1.6 8.0 0.00 1.07 0.00 95 1027.9
20210801063020 10 295 1.6 6.4 0.00 1.07 0.00 95 1028.0
20210801061519 10 295 0.0 4.8 0.00 1.07 0.00 95 1028.0
20210801060025 10 295 1.6 4.8 0.00 1.07 0.00 95 1027.9
20210801054520 10 295 0.0 0.0 0.00 1.07 1.07 95 1027.9
20210801053038 10 295 0.0 0.0 0.00 1.07 1.07 95 1027.8
20210801051525 10 295 0.0 0.0 0.00 1.07 1.07 95 1027.7
20210801050018 10 295 0.0 0.0 0.00 1.07 1.07 95 1027.8
20210801044518 10 295 0.0 3.2 0.00 1.32 1.07 95 1027.9
20210801043017 10 297 0.0 0.0 0.00 1.32 1.07 94 1027.9
20210801041519 10 297 0.0 0.0 0.00 1.32 1.07 94 1027.9
20210801040058 10 297 0.0 6.4 0.00 1.32 1.07 94 1027.8
20210801034518 10 297 1.6 6.4 0.00 1.42 1.07 94 1027.7
20210801033015 10 297 3.2 6.4 0.00 1.42 1.07 94 1027.5
20210801031529 11 297 1.6 4.8 0.00 1.42 1.07 94 1027.4
20210801030005 10 297 3.2 6.4 0.00 1.42 1.07 94 1027.2
20210801024510 11 297 3.2 8.0 0.00 1.42 1.07 94 1026.9
20210801023031 11 297 1.6 6.4 0.00 1.42 1.07 94 1026.7
20210801021501 11 298 3.2 9.7 0.00 1.42 1.07 94 1026.5
20210801020211 11 300 4.8 8.0 0.00 1.42 1.07 94 1026.2
20210801014623 11 303 4.8 8.0 0.03 1.42 1.07 94 1026.0
20210801013157 11 306 3.2 9.7 0.05 1.42 1.07 93 1026.0
20210801011714 11 36 3.2 8.0 0.10 1.42 1.07 93 1026.0
20210801010131 11 36 0.0 6.4 0.23 1.42 1.07 93 1025.9
20210801004811 11 36 0.0 1.6 0.30 1.40 1.04 93 1025.7
20210801003135 11 36 0.0 4.8 0.38 1.37 1.02 93 1025.4
20210801001640 11 31 0.0 12.9 0.46 1.32 0.97 93 1025.2
20210801000111 11 329 0.0 4.8 0.43 1.19 0.84 92 1025.0
20210731234626 12 329 3.2 9.7 0.46 1.09 0.71 92 1024.8
20210731233051 12 329 1.6 9.7 0.41 0.99 0.64 92 1024.7
20210731231709 12 331 0.0 6.4 0.36 0.86 0.51 91 1024.6
20210731230150 12 331 3.2 11.3 0.28 0.76 0.41 90 1024.4
20210731224616 12 291 0.0 9.7 0.15 0.64 0.28 89 1024.1
20210731223110 13 292 0.0 9.7 0.10 0.58 0.23 88 1024.1
20210731221653 13 326 4.8 17.7 0.00 0.48 0.13 86 1024.0
20210731220053 14 40 0.0 8.0 0.00 0.48 0.13 83 1023.7
20210731214603 14 43 0.0 8.0 0.00 0.48 0.13 81 1023.5
20210731213103 15 360 0.0 8.0 0.00 0.48 0.13 82 1023.5
20210731211558 14 360 0.0 0.0 0.00 0.48 0.13 84 1023.5
20210731210118 14 43 0.0 3.2 0.00 0.48 0.13 85 1023.5
20210731204554 14 360 0.0 8.0 0.00 0.48 0.13 84 1023.6
20210731203145 14 40 0.0 8.0 0.00 0.48 0.13 84 1023.4
20210731201632 14 41 1.6 9.7 0.00 0.48 0.13 86 1023.1
20210731200143 13 47 0.0 6.4 0.00 0.48 0.13 88 1023.0
20210731194555 14 360 0.0 9.7 0.00 0.48 0.13 86 1023.0
20210731193051 14 360 1.6 11.3 0.00 0.48 0.13 85 1022.8